Regional Weather Roundup
Issued by NWS

Home | Current Version | Previous Version | Text Only | Print | Product List | Glossary On
Versions: 1 2 3 4 5 6 7 8 9 10 11 12 13 14 15 16 17 18 19 20 21 22 23 24 25 26 27 28 29 30 31 32 33 34 35 36 37 38 39 40 41 42 43 44 45 46 47 48 49 50
935
ASCA42 TJSJ 251310
RWRPR
PUERTO RICO/U.S. VIRGIN ISLANDS HOURLY WEATHER ROUNDUP
NATIONAL WEATHER SERVICE SAN JUAN PR
900 AM AST SAT MAR 25 2017

PRZ001>002-007>008-010-251400-
PUERTO RICO

CITY           SKY/WX    TMP DP  RH WIND       PRES   REMARKS
SAN JUAN LMM   PTSUNNY   75  72  88 SE9       29.95R
AGUADILLA      PTSUNNY   77  70  78 S7        29.95R
CEIBA          CLOUDY    79  73  83 SE15      29.99S
$$

VIZ001>002-251400-
U.S. VIRGIN ISLANDS

CITY           SKY/WX    TMP DP  RH WIND       PRES   REMARKS
CHARLOTTE AMA  MOSUNNY   79  73  83 SE16      29.97R
CHRISTIANSTED  CLOUDY    79  73  83 SE10      29.99R
$$

HOURLY WEATHER ROUNDUP FOR THE NEWS MEDIA

CITY           SKY/WX    TMP DP  RH WIND       PRES   REMARKS
ORLANDO        MOSUNNY   67  61  81 E5        30.23R
NEW YORK       CLOUDY    56  42  59 N5        30.17R
NEWARK         CLOUDY    54  39  57 NW5       30.15R
CHICAGO        DRIZZLE   42  39  89 NE14      30.05S
HARTFORD       CLOUDY    45  37  73 N5        30.16S
BOSTON         CLOUDY    40  37  89 N10       30.20R WCI  33
DALLAS         PTCLDY    55  44  66 NW13      30.00R
PHILADELPHIA   CLOUDY    56  46  69 SW13      30.17R
LOS ANGELES    PTCLDY    56  51  84 N3        30.11S
WASHINGTON DC  CLOUDY    59  47  64 S8        30.20R



USA.gov is the U.S. government's official web portal to all federal, state and local government web resources and services.